FLOCK 4P 11

导读

FLOCK 4P 11是美国Planet公司(原行星实验室)研制的3U遥感立方体卫星,属于Flock-4P鸽群星座,于2019年11月27日发射。该卫星重量约5千克,运行于近地太阳同步轨道,配备高倍率光学成像设备,可提供3-5米分辨率对地观测影像,服务农业监测、自然资源管理等领域,补充了全球 daily 遥感更新的鸽群星座能力。

Basic Information
目录编号:
44809
目录名称:
FLOCK 4P 11
国际标识:
2019-081F
轨道中心:
EARTH
卫星名称:
FLOCK 4P 11
卫星全名:
--
卫星状态:
已陨落 最后检测时间 2024-01-30
发射日期:
2019-11-27 UTC
国别 :
美国 (US)
星等 :
--
Orbit Information
数据来源 国际轨道数据
星历时间: 2024-01-29T00:50:13+0800
轨道信息已过期897天
半长轴: 6543.306km
偏心率: 0.0010247
轨道倾角: 97.301°
近地点辐角 286.207°
升交点赤经 110.237°
平近点角 73.810°
近地点: 158.466km
远地点: 171.876km
周期: 87.792分钟
每日圈数: 16.402385
Detailed Information
使用方式:
暂无